Station SLVM5 - Silver Bay, MN Image indicating link to RSS feed of recent meteorological observations for station SLVM5


Conditions at SLVM5 as of
(1:40 am CDT)
0640 GMT on 06/24/2024:
     

Click on the graph icon in the table below to see a time series plot of the last five days of that observation.

5-day plot - Wind Direction Wind Direction (WDIR): E ( 90 deg true )
5-day plot - Wind Speed Wind Speed (WSPD): 2.9 kts
5-day plot - Wind Gust Wind Gust (GST): 4.1 kts
5-day plot - Atmospheric Pressure Atmospheric Pressure (PRES):29.90 in
5-day plot - Air Temperature Air Temperature (ATMP): 54.3 °F
5-day plot - Wind Speed at 10 Meters Wind Speed at 10 meters (WSPD10M): 3.9 kts
5-day plot - Wind Speed at 20 Meters Wind Speed at 20 meters (WSPD20M): 3.9 kts
5-day plot -  Wind Speed, Wind Gust and Atmospheric Pressure Combined plot of Wind Speed, Gust, and Air Pressure
Previous observations
TIME
(CDT)
5-day plot - Wind Direction
WDIR
 
5-day plot - Wind Speed
WSPD
kts
5-day plot - Wind Gust
GST
kts
5-day plot - Wave Height
WVHT
ft
5-day plot - Dominant Wave Period
DPD
sec
5-day plot - Average Wave Period
APD
sec
5-day plot - Mean Wave Direction
MWD
 
5-day plot - Atmospheric Pressure
PRES
in
5-day plot - Pressure Tendency
PTDY
in
5-day plot - Air Temperature
ATMP
°F
5-day plot - Water Temperature
WTMP
°F
5-day plot - Dew Point
DEWP
°F
5-day plot - Salinity
SAL
psu
5-day plot - Visibility
VIS
nmi
5-day plot - Tide (above MLLW)
TIDE
ft
2024-06-24 01:30 am- 0.0 0.0----29.90- 56.3-----
2024-06-24 01:20 am- 0.0 1.9----29.90- 57.2-----
2024-06-24 01:10 am- 0.0 1.9----29.90- 57.7-----
2024-06-24 01:00 amWSW 1.9 4.1----29.90+0.01 58.1-----
2024-06-24 12:50 am N 1.9 2.9----29.90- 58.6-----
2024-06-24 12:40 am W 2.9 6.0----29.90- 58.3-----
2024-06-24 12:30 amNNW 4.1 4.1----29.90- 58.3-----
2024-06-24 12:20 am W 1.9 4.1----29.90- 58.3-----
2024-06-24 12:10 amNNW 2.9 4.1----29.89- 58.8-----
2024-06-24 12:00 am NW 2.9 5.1----29.89+0.02 59.0-----
2024-06-23 11:50 pmNNW 2.9 4.1----29.89- 59.0-----
2024-06-23 11:40 pmNNW 4.1 5.1----29.89- 59.0-----
2024-06-23 11:30 pm N 4.1 4.1----29.89- 58.8-----
2024-06-23 11:20 pm W 1.0 2.9----29.90- 59.2-----
2024-06-23 11:10 pm N 1.9 2.9----29.89- 59.2-----
2024-06-23 11:00 pm NW 1.9 4.1----29.90+0.05 59.4-----
2024-06-23 10:50 pmNNW 2.9 4.1----29.90- 59.4-----
2024-06-23 10:40 pmNNW 2.9 5.1----29.90- 58.3-----
2024-06-23 10:30 pmNNW 2.9 2.9----29.89- 55.8-----
2024-06-23 10:20 pm- 0.0 2.9----29.89- 56.1-----
2024-06-23 10:10 pm N 1.9 2.9----29.89- 55.0-----
2024-06-23 10:00 pm- 0.0 0.0----29.89+0.04 55.0-----
2024-06-23 09:50 pm- 0.0 0.0----29.88- 55.0-----
2024-06-23 09:40 pm- 0.0 0.0----29.88- 55.6-----
2024-06-23 09:30 pm- 0.0 2.9----29.88- 55.0-----
2024-06-23 09:20 pm- 0.0 1.9----29.87- 55.2-----
2024-06-23 09:10 pmNNW 2.9 2.9----29.87- 55.4-----
2024-06-23 09:00 pm E 1.9 2.9----29.87+0.03 54.9-----
2024-06-23 08:50 pm- 0.0 0.0----29.87- 55.2-----
2024-06-23 08:40 pm- 0.0 2.9----29.86- 55.4-----
2024-06-23 08:30 pm N 1.9 8.0----29.86- 54.9-----
2024-06-23 08:20 pmENE 1.9 8.0----29.86- 55.8-----
2024-06-23 08:10 pm- 0.0 4.1----29.85- 59.2-----
2024-06-23 08:00 pm- 0.0 7.0----29.85- 57.7-----
2024-06-23 07:50 pmENE 6.0 7.0----29.86- 59.2-----
2024-06-23 07:40 pm- 0.0 0.0----29.85- 57.9-----
2024-06-23 07:30 pm- 0.0 5.1----29.85- 62.1-----
2024-06-23 07:20 pm- 0.0 0.0----29.85- 64.4-----
2024-06-23 07:10 pm- 0.0 0.0----29.85- 61.9-----
2024-06-23 07:00 pm- 0.0 2.9----29.85+0.03 59.5-----
2024-06-23 06:50 pm- 0.0 0.0----29.84- 58.6-----
2024-06-23 06:40 pmENE 1.9 4.1----29.85- 55.8-----
2024-06-23 06:30 pm E 2.9 2.9----29.85- 55.8-----
2024-06-23 06:20 pm E 2.9 4.1----29.85- 56.3-----
2024-06-23 06:10 pm- 0.0 2.9----29.85- 57.7-----
2024-06-23 06:00 pmENE 4.1 15.0----29.84- 55.4-----
2024-06-23 05:50 pm E 4.1 5.1----29.84- 55.8-----
2024-06-23 05:40 pm- 0.0 0.0----29.84- 57.2-----
2024-06-23 05:30 pm- 0.0 2.9----29.84- 55.0-----
2024-06-23 05:20 pmESE 2.9 4.1----29.84- 57.4-----
2024-06-23 05:10 pm- 0.0 2.9----29.84- 56.7-----
2024-06-23 05:00 pm E 1.9 7.0----29.84+0.03 54.5-----
2024-06-23 04:50 pm E 1.9 6.0----29.84- 55.4-----
2024-06-23 04:40 pm E 5.1 7.0----29.84- 55.6-----
2024-06-23 04:30 pmSSW 5.1 6.0----29.83- 56.8-----
2024-06-23 04:20 pmSSW 5.1 5.1----29.83- 56.5-----
2024-06-23 04:10 pm S 2.9 4.1----29.83- 56.8-----
2024-06-23 04:00 pm S 1.9 4.1----29.82+0.00 55.2-----
2024-06-23 03:50 pm- 0.0 4.1----29.82- 57.2-----
2024-06-23 03:40 pm SW 4.1 5.1----29.83- 55.4-----
2024-06-23 03:30 pm- 0.0 5.1----29.83- 55.0-----
2024-06-23 03:20 pm E 5.1 5.1----29.83- 52.9-----
2024-06-23 03:10 pm E 4.1 5.1----29.82- 52.0-----
2024-06-23 03:00 pm E 1.9 4.1----29.82+0.00 52.2-----
2024-06-23 02:50 pm E 1.0 4.1----29.82- 53.6-----
2024-06-23 02:40 pm SW 1.0 7.0----29.82- 54.0-----
2024-06-23 02:30 pmSSW 7.0 12.0----29.82- 52.9-----
2024-06-23 02:20 pmSSW 12.0 13.0----29.81- 52.0-----
2024-06-23 02:10 pm SW 12.0 15.0----29.81- 52.0-----
2024-06-23 02:00 pm SW 14.0 18.1----29.81- 52.7-----
2024-06-23 01:40 pm SW 15.9 18.1----29.81- 53.2-----
2024-06-23 01:30 pm SW 15.9 17.1----29.81- 54.7-----
2024-06-23 01:20 pm SW 14.0 18.1----29.81- 53.4-----
2024-06-23 01:10 pm SW 13.0 17.1----29.81- 54.0-----
2024-06-23 01:00 pmSSW 13.0 17.1----29.82- 52.0-----
2024-06-23 12:50 pmSSW 15.0 15.9----29.81- 52.2-----
2024-06-23 12:40 pmSSW 12.0 14.0----29.81- 52.2-----
2024-06-23 12:30 pmSSW 13.0 15.9----29.82- 52.0-----
2024-06-23 12:20 pm SW 14.0 15.9----29.82- 52.9-----
2024-06-23 12:10 pm SW 13.0 15.0----29.82- 52.0-----
2024-06-23 12:00 pm SW 13.0 15.0----29.82+0.01 52.0-----
2024-06-23 11:50 am SW 14.0 14.0----29.82- 53.4-----
2024-06-23 11:40 am SW 13.0 17.1----29.82- 53.2-----
2024-06-23 11:30 am SW 14.0 17.1----29.81- 52.7-----
2024-06-23 11:20 am SW 13.0 15.9----29.81- 51.6-----
2024-06-23 11:10 amSSW 13.0 17.1----29.81- 52.3-----
2024-06-23 11:02 am SW 14.0 15.0----29.81- 54.5-----
2024-06-23 11:00 am SW 13.0 14.0----29.81+0.00 54.5-----
2024-06-23 10:50 am SW 8.9 15.0----29.81- 58.5-----
2024-06-23 10:40 am SW 12.0 15.0----29.81- 54.5-----
2024-06-23 10:30 am SW 13.0 14.0----29.81- 53.8-----
2024-06-23 10:20 am SW 11.1 13.0----29.82-------
2024-06-23 10:10 amSSW 8.0 9.9----29.82-------
2024-06-23 10:01 am S 5.1 21.0----29.82- 61.3-----
2024-06-23 10:00 am S 5.1 7.0----29.82+0.03 61.3-----
2024-06-23 09:40 am S 8.9 12.0----29.82- 58.6-----
2024-06-23 09:30 amWNW 2.9 15.9----29.81- 63.5-----
2024-06-23 09:20 am NW 11.1 19.0----29.81- 62.8-----
2024-06-23 09:10 am NW 12.0 21.0----29.80- 62.2-----
2024-06-23 09:01 amWNW 12.0 21.0----29.81- 62.1-----
2024-06-23 09:00 amWNW 12.0 20.0----29.81+0.02 62.1-----
2024-06-23 08:50 amWNW 8.9 19.0----29.81- 61.3-----
2024-06-23 08:40 am NW 12.0 21.0----29.81- 61.0-----
2024-06-23 08:30 am NW 8.0 15.9----29.81- 60.3-----
2024-06-23 08:20 am W 4.1 15.0----29.82- 56.7-----
2024-06-23 08:10 am NW 8.0 19.0----29.81- 60.6-----
2024-06-23 08:00 am NW 11.1 17.1----29.80- 60.3-----
2024-06-23 07:50 amWNW 8.0 15.9----29.81- 59.2-----
2024-06-23 07:40 amWSW 2.9 11.1----29.81- 58.1-----
2024-06-23 07:30 am NW 9.9 21.0----29.79- 60.3-----
2024-06-23 07:20 am NW 9.9 22.0----29.79- 60.1-----
2024-06-23 07:10 am NW 11.1 22.0----29.79- 59.5-----
2024-06-23 07:00 am NW 9.9-----29.79- 59.2-----
2024-06-23 06:50 am NW 14.0 26.0----29.79- 58.6-----
2024-06-23 06:42 amWNW 15.0 26.0----29.79- 58.3-----
2024-06-23 06:40 amWNW 15.0 25.1----29.79- 58.3-----
2024-06-23 06:30 amWNW 15.0 22.9----29.79- 57.9-----
2024-06-23 06:20 am NW 12.0 20.0----29.79- 58.3-----
2024-06-23 06:10 am NW 13.0 22.9----29.79- 57.6-----
2024-06-23 06:00 am NW 12.0 24.1----29.79- 57.4-----
2024-06-23 05:50 am NW 11.1 20.0----29.79- 57.7-----
2024-06-23 05:40 am NW 8.0 17.1----29.79- 57.4-----
2024-06-23 05:30 am NW 8.9 17.1----29.79- 57.2-----
2024-06-23 05:20 amWNW 11.1 21.0----29.79- 57.0-----
2024-06-23 05:10 am NW 14.0 22.0----29.79- 56.3-----
2024-06-23 05:00 am NW 14.0 24.1----29.79-0.02 57.0-----
2024-06-23 04:50 am NW 9.9 18.1----29.79- 55.2-----
2024-06-23 04:40 amWSW 7.0 8.0----29.80- 54.5-----
2024-06-23 04:30 am S 2.9 4.1----29.80- 54.3-----
2024-06-23 04:20 amSSE 1.9 8.0----29.80- 55.4-----
2024-06-23 04:10 am NW 4.1 8.0----29.80- 54.7-----
2024-06-23 04:00 am W 2.9 9.9----29.79-0.03 54.3-----
2024-06-23 03:50 amNNE 2.9 6.0----29.79- 54.1-----
2024-06-23 03:40 amNNE 1.9 4.1----29.79- 54.1-----
2024-06-23 03:30 am NW 2.9 8.0----29.80- 55.4-----
2024-06-23 03:20 amSSE 1.9 8.9----29.80- 54.7-----
2024-06-23 03:10 amNNW 5.1 11.1----29.80- 55.6-----
2024-06-23 03:00 am NW 8.0 15.0----29.80-0.04 55.0-----
2024-06-23 02:50 am NW 1.9 6.0----29.80- 53.4-----
2024-06-23 02:40 am NW 1.9 7.0----29.80- 53.8-----
2024-06-23 02:30 amENE 1.9 4.1----29.81- 52.9-----
2024-06-23 02:20 am- 0.0 4.1----29.81- 52.3-----
2024-06-23 02:10 am- 0.0 1.0----29.81- 51.6-----
2024-06-23 02:00 am- 0.0 0.0----29.81-0.03 50.5-----
2024-06-23 01:50 am- 0.0 0.0----29.81- 49.6-----